[[{"header":{"parameterUnit":"m.s-1","parameterCategory":1,"la1":30.2992,"la2":30.254,"lo1":-89.0895,"lo2":-89.0443,"dy":0.0025,"dx":0.0025,"nx":19,"ny":19,"refTime":"2026-04-03T21:00:00:Z","depth":0,"parameterNumber":2,"parameterNumberName":"U-component_of_WINDS"},"data":[0,0,0,-3.5324,-3.5326,-3.5394,-3.5394,-3.5492,-3.5493,0,0,0,0,0,0,0,0,0,0,0,-3.5311,-3.5312,-3.5324,-3.5326,-3.5394,-3.5394,-3.5491,-3.5493,0,0,0,0,0,0,0,0,0,0,0,-3.5311,-3.5312,-3.5313,-3.5326,-3.5394,-3.5394,-3.5491,-3.5436,0,0,0,0,0,0,0,0,0,0,-3.5368,-3.5363,-3.5312,-3.5313,-3.5327,-3.5393,-3.5394,-3.5433,-3.5439,-3.5466,0,-3.5492,0,-3.5494,-3.55,-3.55,0,0,0,-3.532,-3.5358,-3.537,-3.5313,-3.5327,-3.5393,-3.5361,-3.5436,-3.5444,-3.5474,-3.5493,-3.5497,-3.5496,-3.5501,-3.5501,-3.5677,-3.5678,0,0,-3.5316,-3.5327,-3.5365,-3.5375,-3.5366,-3.5359,-3.5364,-3.544,-3.5461,-3.5494,-3.5499,-3.5497,-3.5501,-3.5502,-3.5675,-3.5677,0,0,0,-3.5309,-3.5324,-3.5334,-3.5371,-3.5383,-3.5361,-3.5366,-3.5458,-3.546,-3.55,-3.5499,-3.5502,-3.5503,-3.5674,-3.5676,-3.574,0,0,0,-3.5307,-3.532,-3.5333,-3.534,-3.5382,-3.5421,-3.5382,-3.5455,-3.5463,-3.5498,-3.5502,-3.5504,-3.5673,-3.5675,-3.5735,-3.5767,0,0,0,-3.5304,-3.532,-3.5333,-3.5341,-3.537,-3.542,-3.5427,-3.5457,-3.5463,-3.55,-3.5505,-3.5672,-3.5675,-3.5731,-3.576,-3.5815,0,0,0,-3.5304,-3.5387,-3.5334,-3.5427,-3.537,-3.546,-3.5426,-3.5492,-3.5532,-3.5503,-3.5673,-3.5676,-3.573,-3.5756,-3.5811,-3.5862,-3.5884,0,0,-3.5415,-3.5401,-3.5455,-3.5409,-3.5511,-3.5449,-3.556,-3.5586,-3.5579,-3.5644,-3.5649,-3.5737,-3.576,-3.5814,-3.6013,-3.6031,0,0,0,-3.5493,-3.5532,-3.5557,-3.5596,-3.562,-3.5642,-3.565,-3.566,-3.5715,-3.5615,-3.5772,-3.5786,-3.5817,-3.5841,-3.5856,-3.5882,-3.5688,-3.5688,-3.5687,-3.5662,-3.5652,-3.5741,-3.5739,-3.5778,-3.5787,-3.5817,-3.5832,-3.5808,-3.5846,-3.5864,-3.5986,-3.6014,-3.6025,-3.6052,-3.5892,-3.5892,-3.5893,-3.5893,-3.5822,-3.5874,-3.5845,-3.5919,-3.5908,-3.5971,-3.5984,-3.5966,-3.6022,-3.5971,-3.5998,-3.594,-3.6045,-3.6068,-3.5897,-3.5897,-3.5896,-3.5896,-3.5895,-3.5929,-3.5952,-3.5965,-3.6022,-3.6068,-3.6064,-3.612,-3.6108,-3.6097,-3.6124,-3.6141,-3.614,-3.6135,-3.6134,-3.6134,-3.6135,-3.6135,-3.6135,-3.6136,-3.6033,-3.6046,-3.6095,-3.613,-3.6155,-3.6186,-3.6199,-3.6222,-3.6245,-3.6232,-3.6232,-3.6204,-3.6059,-3.6021,-3.6142,-3.6141,-3.614,-3.6139,-3.6139,-3.6193,-3.6156,-3.6232,-3.6257,-3.6298,-3.6344,-3.633,-3.638,-3.6398,-3.6426,-3.6395,-3.629,-3.6274,-3.6262,-3.623,-3.6398,-3.6398,-3.6398,-3.6398,-3.6281,-3.6274,-3.635,-3.6391,-3.643,-3.6426,-3.6512,-3.6525,-3.6531,-3.6542,-3.6517,-3.6475,-3.6463,-3.6454,-3.6438,-3.6408,-3.6617,-3.6617,-3.6617,-3.6378,-3.6375,-3.645,-3.6458,-3.649,-3.6517,-3.6598,-3.6646,-3.6646,-3.6626,-3.6549,-3.654,-3.6473,-3.6452,-3.6425,-3.64,-3.6345,0,0]},{"header":{"parameterUnit":"m.s-1","parameterCategory":1,"la1":30.2992,"la2":30.254,"lo1":-89.0895,"lo2":-89.0443,"dy":0.0025,"dx":0.0025,"nx":19,"ny":19,"refTime":"2026-04-03T21:00:00:Z","depth":0,"parameterNumber":3,"parameterNumberName":"V-component_of_WINDS"},"data":[0,0,0,2.4931,2.4931,2.4945,2.4945,2.4952,2.4952,0,0,0,0,0,0,0,0,0,0,0,2.4918,2.4918,2.4931,2.4931,2.4945,2.4945,2.4952,2.4952,0,0,0,0,0,0,0,0,0,0,0,2.4918,2.4918,2.4918,2.4931,2.4945,2.4945,2.4952,2.4946,0,0,0,0,0,0,0,0,0,0,2.4934,2.4913,2.4918,2.4918,2.4931,2.4945,2.4945,2.4946,2.4946,2.4941,0,2.4932,0,2.4942,2.4952,2.4952,0,0,0,2.4937,2.4913,2.4925,2.4918,2.4931,2.4945,2.494,2.4946,2.4946,2.4941,2.4933,2.4933,2.4943,2.4952,2.4952,2.4902,2.4902,0,0,2.4936,2.4916,2.4924,2.4925,2.4921,2.494,2.4941,2.4946,2.4936,2.4933,2.4934,2.4943,2.4952,2.4952,2.4903,2.4902,0,0,0,2.493,2.4915,2.4927,2.4924,2.4928,2.494,2.4941,2.4935,2.4941,2.4934,2.4943,2.4952,2.4951,2.4903,2.4903,2.4859,0,0,0,2.493,2.4911,2.4926,2.4914,2.4927,2.4931,2.4929,2.4941,2.4942,2.4943,2.4952,2.4951,2.4904,2.4903,2.4862,2.4842,0,0,0,2.492,2.491,2.491,2.4913,2.4918,2.4932,2.4938,2.4941,2.4947,2.4952,2.4951,2.4904,2.4903,2.4864,2.4845,2.4826,0,0,0,2.4904,2.4867,2.4909,2.4872,2.4918,2.4905,2.4938,2.4928,2.4927,2.4952,2.4904,2.4903,2.4865,2.4847,2.4828,2.4806,2.4795,0,0,2.4846,2.4859,2.484,2.4878,2.4852,2.4904,2.4873,2.489,2.4908,2.4904,2.4903,2.4861,2.4845,2.4826,2.4737,2.4728,0,0,0,2.4815,2.4802,2.4799,2.4798,2.4812,2.4824,2.4849,2.4857,2.4855,2.4901,2.4849,2.484,2.483,2.482,2.4812,2.4806,2.4897,2.4897,2.4897,2.4703,2.4732,2.4704,2.4737,2.4736,2.4765,2.4768,2.4784,2.4809,2.4797,2.4796,2.4738,2.4726,2.4721,2.4714,2.4786,2.4786,2.4786,2.4786,2.4624,2.461,2.4652,2.464,2.4672,2.4662,2.4692,2.4712,2.471,2.474,2.4732,2.4763,2.471,2.4706,2.4783,2.4783,2.4783,2.4784,2.4784,2.4554,2.4553,2.4565,2.4572,2.4575,2.461,2.4607,2.4636,2.4663,2.4655,2.466,2.4661,2.4667,2.4656,2.4655,2.4655,2.4655,2.4655,2.4655,2.4476,2.4492,2.4487,2.4504,2.4512,2.4525,2.4559,2.4567,2.4584,2.4605,2.4606,2.4636,2.4699,2.4715,2.4652,2.4652,2.4653,2.4653,2.4653,2.4385,2.4413,2.4403,2.4411,2.4439,2.4442,2.4481,2.4497,2.4508,2.4508,2.4542,2.4583,2.4598,2.4604,2.4618,2.4533,2.4533,2.4533,2.4533,2.4327,2.434,2.4341,2.4352,2.4367,2.4404,2.4398,2.4427,2.4461,2.4472,2.4489,2.4509,2.4514,2.4526,2.4534,2.4548,2.4447,2.4447,2.4447,2.4275,2.4291,2.4278,2.4314,2.434,2.4362,2.4359,2.4372,2.4417,2.4444,2.4481,2.4485,2.4518,2.4527,2.4552,2.4564,2.4589,0,0]}]]